[[{"header":{"parameterUnit":"m.s-1","parameterCategory":1,"la1":30.2991,"la2":30.254,"lo1":-89.0895,"lo2":-89.0444,"dy":0.0017,"dx":0.0017,"nx":28,"ny":28,"refTime":"2024-03-14T21:00:00:Z","depth":0,"parameterNumber":2,"parameterNumberName":"U-component_of_WINDS"},"data":[0,0,0,0,0,0,0,0,0,0,0,0,0,0,0,0,0,0,0,0,0,0,0,0,0,0,0,0,0,0,0,0,0,0,0,0,0,0,0,0,0,0,0,0,0,0,0,0,0,0,0,0,0,0,0,0,0,0,-2.7379,-2.7379,0,-2.7431,-2.7431,-2.7432,-2.7432,-2.7432,-2.7431,-2.743,-2.7483,-2.7485,-2.7487,0,0,0,0,0,0,0,0,0,0,0,0,0,-2.7279,-2.7281,-2.7379,-2.7379,-2.738,-2.7431,-2.7431,-2.7432,-2.7432,-2.7431,-2.7431,-2.743,-2.7482,-2.7484,-2.7487,0,0,0,0,0,0,0,0,0,0,0,0,0,-2.7326,-2.7282,-2.7378,-2.7386,-2.7387,-2.743,-2.7431,-2.7432,-2.7432,-2.7431,-2.743,-2.743,-2.7481,-2.7484,-2.7487,-2.7526,0,0,-2.7496,-2.7498,0,0,0,0,0,0,0,0,-2.7323,-2.733,-2.7384,-2.7386,-2.7387,-2.7424,-2.7416,-2.7464,-2.7433,-2.7415,-2.743,-2.7429,-2.7464,-2.7468,-2.748,-2.7528,-2.753,-2.7497,-2.7498,-2.75,-2.7501,0,0,0,0,0,0,0,-2.732,-2.7327,-2.7399,-2.7385,-2.7387,-2.7387,-2.7392,-2.7425,-2.7445,-2.7417,-2.7417,-2.7423,-2.7464,-2.7477,-2.7481,-2.7531,-2.7497,-2.7499,-2.7501,-2.7502,-2.7614,-2.7615,0,0,0,0,0,0,-2.7315,-2.7325,-2.7397,-2.7401,-2.7352,-2.739,-2.7396,-2.7413,-2.7444,-2.7448,-2.7424,-2.7423,-2.7473,-2.7478,-2.7483,-2.753,-2.75,-2.7503,-2.7504,-2.7613,-2.7614,-2.7615,0,0,0,0,0,0,-2.7313,-2.7322,-2.7395,-2.7363,-2.7372,-2.7392,-2.7412,-2.7415,-2.7427,-2.745,-2.7453,-2.7433,-2.7472,-2.7479,-2.7515,-2.7532,-2.7504,-2.7507,-2.7611,-2.7613,-2.7615,-2.7624,0,0,0,0,0,0,-2.731,-2.7321,-2.7336,-2.7363,-2.7374,-2.7426,-2.7413,-2.7416,-2.7433,-2.7432,-2.7459,-2.7463,-2.7472,-2.7511,-2.7518,-2.7536,-2.7509,-2.761,-2.7612,-2.7614,-2.7623,-2.7626,-2.7629,0,0,0,0,0,-2.7307,-2.7336,-2.7336,-2.7345,-2.7393,-2.7427,-2.7434,-2.7443,-2.7434,-2.7449,-2.7464,-2.7462,-2.753,-2.7515,-2.7523,-2.7541,-2.7609,-2.7612,-2.7614,-2.7621,-2.7626,-2.7629,0,0,0,0,0,0,-2.731,-2.734,-2.734,-2.738,-2.7401,-2.7427,-2.7446,-2.7448,-2.7472,-2.747,-2.7481,-2.7487,-2.7523,-2.7536,-2.7519,-2.7581,-2.7568,-2.7572,-2.757,-2.7575,-2.7578,-2.7573,-2.7512,0,0,0,0,0,-2.7315,-2.7341,-2.7366,-2.7398,-2.7409,-2.7426,-2.7441,-2.7447,-2.747,-2.7479,-2.7496,-2.7517,-2.7543,-2.756,-2.7585,-2.7625,-2.7631,-2.7642,-2.7646,-2.7648,-2.7651,-2.7673,-2.7678,-2.7624,-2.7624,-2.7624,0,0,-2.7326,-2.7346,-2.7361,-2.7399,-2.7416,-2.7443,-2.7433,-2.7462,-2.7481,-2.7483,-2.7518,-2.7531,-2.7556,-2.7595,-2.7612,-2.7607,-2.7668,-2.7652,-2.7654,-2.7655,-2.7676,-2.7682,-2.7686,-2.7626,-2.7625,-2.7625,0,0,-2.7359,-2.7377,-2.7405,-2.7423,-2.745,-2.7461,-2.7468,-2.7495,-2.7504,-2.754,-2.7542,-2.7565,-2.761,-2.7628,-2.7642,-2.7684,-2.7683,-2.7692,-2.7709,-2.773,-2.7734,-2.7738,-2.7752,-2.7757,-2.7696,-2.7696,-2.7696,0,-2.7369,-2.7409,-2.742,-2.7448,-2.7465,-2.7469,-2.7498,-2.7514,-2.7548,-2.7559,-2.7552,-2.7609,-2.7626,-2.7668,-2.7679,-2.7691,-2.7699,-2.7688,-2.7733,-2.7737,-2.774,-2.7754,-2.7759,-2.7696,-2.7696,-2.7696,-2.7696,0,-2.7419,-2.7447,-2.7467,-2.7499,-2.7518,-2.7547,-2.7563,-2.7581,-2.7586,-2.7598,-2.7634,-2.7655,-2.7685,-2.7696,-2.7701,-2.7739,-2.7735,-2.7731,-2.7718,-2.7746,-2.7759,-2.7764,-2.7697,-2.7697,-2.7697,-2.7697,0,0,-2.7454,-2.7493,-2.75,-2.7515,-2.7545,-2.7567,-2.7596,-2.7625,-2.764,-2.7664,-2.7688,-2.7726,-2.7723,-2.774,-2.7747,-2.7766,-2.7797,-2.7759,-2.776,-2.7764,-2.784,-2.7841,-2.7847,-2.7797,-2.7798,-2.7799,-2.7837,0,-2.7489,-2.754,-2.7552,-2.7596,-2.7622,-2.7627,-2.7652,-2.7673,-2.7686,-2.7709,-2.7724,-2.775,-2.7744,-2.7755,-2.7774,-2.7789,-2.7811,-2.7786,-2.7819,-2.782,-2.7811,-2.7854,-2.7856,-2.789,-2.7842,-2.7843,-2.7844,0,-2.7537,-2.7561,-2.7608,-2.7635,-2.7646,-2.7669,-2.7697,-2.772,-2.7744,-2.7752,-2.7772,-2.7777,-2.7808,-2.7795,-2.7837,-2.782,-2.7834,-2.7844,-2.7846,-2.7847,-2.7832,-2.7856,-2.7902,-2.7906,-2.7852,-2.7851,-2.7851,0,-2.7555,-2.7601,-2.7634,-2.7647,-2.768,-2.7696,-2.771,-2.7734,-2.7751,-2.7776,-2.7787,-2.7815,-2.783,-2.7852,-2.7865,-2.7855,-2.7906,-2.7894,-2.7912,-2.7912,-2.7921,-2.792,-2.7969,-2.7933,-2.7933,-2.7933,-2.7933,0,-2.7593,-2.7621,-2.7643,-2.7664,-2.7696,-2.7709,-2.774,-2.7755,-2.7776,-2.78,-2.7807,-2.7828,-2.7845,-2.7869,-2.788,-2.7913,-2.792,-2.7927,-2.7929,-2.7925,-2.7924,-2.7933,-2.7931,-2.7935,-2.7934,-2.7934,-2.7934,0,-2.7618,-2.7635,-2.7672,-2.77,-2.7708,-2.773,-2.7755,-2.7775,-2.7789,-2.7818,-2.7826,-2.7847,-2.7876,-2.7892,-2.7928,-2.7936,-2.7972,-2.7974,-2.7963,-2.7964,-2.7981,-2.7979,-2.8036,-2.8044,-2.8004,-2.8005,-2.8005,0,-2.764,-2.7662,-2.7693,-2.7709,-2.7724,-2.775,-2.7768,-2.7783,-2.7801,-2.7831,-2.7848,-2.7878,-2.7902,-2.7948,-2.7966,-2.7994,-2.7996,-2.8014,-2.8,-2.7996,-2.7995,-2.7993,-2.7995,-2.8016,-2.8016,-2.8017,-2.8017,0,-2.7677,-2.7684,-2.7709,-2.7738,-2.7758,-2.7781,-2.7804,-2.7817,-2.7836,-2.7856,-2.7886,-2.7905,-2.7943,-2.7972,-2.8001,-2.8016,-2.8019,-2.8022,-2.8027,-2.8022,-2.8015,-2.8018,-2.7968,-2.802,-2.8019,-2.8019,-2.8019,-2.8019,-2.77,-2.772,-2.7745,-2.7773,-2.7792,-2.7813,-2.7833,-2.785,-2.7875,-2.7907,-2.7914,-2.7946,-2.7971,-2.8011,-2.8027,-2.8052,-2.8048,-2.8056,-2.8058,-2.806,-2.806,-2.8013,-2.8058,-2.8057,-2.8057,-2.8057,-2.8057,0,-2.7736,-2.7753,-2.7779,-2.781,-2.7832,-2.7835,-2.786,-2.7878,-2.7906,-2.7929,-2.7953,-2.7988,-2.8016,-2.8038,-2.8067,-2.8083,-2.8085,-2.809,-2.8088,-2.8091,-2.8062,-2.8053,-2.8088,-2.8088,-2.8087,-2.8087,-2.8087,-2.8087,-2.7757,-2.779,-2.7801,-2.7843,-2.786,-2.7891,-2.7905,-2.7925,-2.7943,-2.7982,-2.8005,-2.802,-2.8042,-2.8073,-2.81,-2.8105,-2.8115,-2.812,-2.8125,-2.8097,-2.8093,-2.809,-2.8082,-2.8122,-2.8122,-2.8152,-2.8153,-2.8153]},{"header":{"parameterUnit":"m.s-1","parameterCategory":1,"la1":30.2991,"la2":30.254,"lo1":-89.0895,"lo2":-89.0444,"dy":0.0017,"dx":0.0017,"nx":28,"ny":28,"refTime":"2024-03-14T21:00:00:Z","depth":0,"parameterNumber":3,"parameterNumberName":"V-component_of_WINDS"},"data":[0,0,0,0,0,0,0,0,0,0,0,0,0,0,0,0,0,0,0,0,0,0,0,0,0,0,0,0,0,0,0,0,0,0,0,0,0,0,0,0,0,0,0,0,0,0,0,0,0,0,0,0,0,0,0,0,0,0,4.4533,4.4534,0,4.4599,4.46,4.4601,4.4584,4.4583,4.4581,4.458,4.4646,4.4648,4.4651,0,0,0,0,0,0,0,0,0,0,0,0,0,4.4391,4.4393,4.4533,4.4534,4.4535,4.4599,4.46,4.4601,4.4584,4.4583,4.4581,4.4579,4.4645,4.4648,4.4652,0,0,0,0,0,0,0,0,0,0,0,0,0,4.4454,4.4394,4.4533,4.4534,4.4535,4.4599,4.46,4.4601,4.4584,4.4582,4.4581,4.4579,4.4643,4.4648,4.4652,4.4718,0,0,4.4666,4.4668,0,0,0,0,0,0,0,0,4.4451,4.4459,4.4533,4.4534,4.4535,4.4581,4.4574,4.464,4.4585,4.4565,4.458,4.4578,4.4626,4.4631,4.4648,4.4721,4.4724,4.4666,4.4669,4.4671,4.4672,0,0,0,0,0,0,0,4.4446,4.4456,4.4559,4.4534,4.4535,4.4531,4.4538,4.4586,4.4606,4.4567,4.4566,4.4574,4.4626,4.4644,4.4649,4.4725,4.4666,4.467,4.4673,4.4674,4.4859,4.4861,0,0,0,0,0,0,4.4441,4.4453,4.4557,4.4561,4.4487,4.4535,4.4543,4.4568,4.4605,4.4609,4.4576,4.4573,4.4637,4.4644,4.4652,4.4734,4.4671,4.4675,4.4677,4.4857,4.4859,4.4862,0,0,0,0,0,0,4.4438,4.4451,4.4554,4.4507,4.452,4.454,4.4568,4.4571,4.4589,4.4612,4.4615,4.4591,4.4636,4.4645,4.4703,4.4736,4.4677,4.4681,4.4854,4.4858,4.4861,4.4898,0,0,0,0,0,0,4.4434,4.445,4.4475,4.4507,4.4522,4.4605,4.457,4.4573,4.4597,4.4594,4.4627,4.463,4.4635,4.4696,4.4707,4.4741,4.4684,4.4851,4.4856,4.486,4.4894,4.4902,4.4909,0,0,0,0,0,4.4429,4.4482,4.4477,4.4489,4.4555,4.4607,4.4615,4.462,4.4599,4.4626,4.4641,4.4629,4.473,4.4702,4.4714,4.475,4.4849,4.4854,4.4859,4.489,4.49,4.4909,0,0,0,0,0,0,4.4451,4.4486,4.4481,4.4545,4.4573,4.4604,4.4636,4.463,4.4664,4.466,4.4665,4.4672,4.4731,4.4746,4.4714,4.4817,4.4787,4.4794,4.4806,4.4816,4.4823,4.4819,4.4688,0,0,0,0,0,4.4464,4.4504,4.4531,4.4586,4.46,4.4616,4.4639,4.4641,4.467,4.4681,4.47,4.4728,4.4767,4.4791,4.4828,4.4895,4.4903,4.4926,4.4933,4.4939,4.4947,4.4986,4.4997,4.4878,4.4878,4.4878,0,0,4.449,4.4514,4.4539,4.4591,4.4613,4.4655,4.4626,4.467,4.4701,4.4687,4.4744,4.4759,4.479,4.4854,4.4882,4.4868,4.4981,4.4946,4.4951,4.4955,4.4992,4.5003,4.5013,4.4882,4.4881,4.4881,0,0,4.456,4.4581,4.463,4.4653,4.4687,4.4698,4.471,4.4741,4.4752,4.4808,4.48,4.4836,4.4901,4.4925,4.4945,4.5026,4.5017,4.5037,4.5078,4.5116,4.5125,4.5134,4.5165,4.5175,4.5044,4.5044,4.5044,0,4.4588,4.4651,4.4656,4.4702,4.4726,4.4717,4.4767,4.4789,4.4833,4.4849,4.4832,4.4916,4.4936,4.5006,4.5026,4.5042,4.5057,4.5034,4.5124,4.5132,4.514,4.5169,4.5181,4.5046,4.5046,4.5046,4.5045,0,4.4685,4.4728,4.4764,4.4809,4.4836,4.4884,4.4897,4.4924,4.4924,4.4936,4.4995,4.5019,4.5061,4.5077,4.5077,4.5148,4.5138,4.5122,4.5092,4.5153,4.5182,4.5193,4.505,4.5049,4.5048,4.5047,0,0,4.477,4.4819,4.4832,4.4853,4.4891,4.4924,4.4972,4.5015,4.5039,4.507,4.5111,4.5167,4.5153,4.5177,4.5178,4.5212,4.5277,4.5192,4.5193,4.5209,4.536,4.5373,4.5386,4.5271,4.5273,4.5275,4.5358,0,4.4845,4.493,4.4937,4.5014,4.5056,4.5048,4.509,4.5118,4.5131,4.5167,4.5181,4.5222,4.5199,4.5214,4.5246,4.5262,4.5308,4.5256,4.531,4.5312,4.5305,4.54,4.5414,4.5492,4.5369,4.537,4.5372,0,4.4943,4.498,4.5061,4.5096,4.5113,4.5151,4.5192,4.5226,4.5258,4.5265,4.5292,4.529,4.534,4.5307,4.5376,4.5341,4.5363,4.5374,4.5377,4.5384,4.5347,4.5412,4.5516,4.5529,4.5389,4.5387,4.5386,0,4.5001,4.5069,4.5128,4.5146,4.5186,4.5214,4.5232,4.5261,4.5287,4.5322,4.534,4.5379,4.5402,4.5433,4.5442,4.5416,4.5511,4.5478,4.552,4.552,4.5541,4.554,4.5653,4.5552,4.5552,4.5552,4.5551,0,4.5085,4.5136,4.5155,4.5191,4.5248,4.5255,4.5311,4.5328,4.5355,4.5394,4.5388,4.5426,4.5434,4.5473,4.548,4.5537,4.5546,4.5554,4.5556,4.5556,4.5556,4.5572,4.5568,4.5555,4.5554,4.5553,4.5553,0,4.516,4.5174,4.5238,4.5272,4.5281,4.5322,4.5351,4.5386,4.5399,4.5449,4.5461,4.548,4.5526,4.5538,4.5591,4.5596,4.5665,4.566,4.5655,4.5655,4.5697,4.5694,4.5826,4.5845,4.5729,4.573,4.5731,0,4.5213,4.5253,4.5292,4.5319,4.5338,4.5381,4.5408,4.5416,4.5445,4.5485,4.5516,4.5561,4.5597,4.567,4.5689,4.5731,4.5728,4.5772,4.5735,4.5735,4.5732,4.5731,4.5736,4.578,4.5781,4.5782,4.5783,0,4.5308,4.5314,4.5354,4.5397,4.543,4.5464,4.5496,4.5518,4.5531,4.5563,4.5611,4.5639,4.5695,4.5741,4.5783,4.5801,4.5795,4.5794,4.5806,4.5808,4.5805,4.581,4.5677,4.5791,4.579,4.579,4.5789,4.5789,4.5376,4.5412,4.5446,4.5491,4.5516,4.5547,4.5583,4.56,4.564,4.5688,4.569,4.5742,4.5773,4.583,4.5851,4.5891,4.5878,4.5895,4.59,4.5905,4.591,4.5796,4.5899,4.5898,4.5898,4.5898,4.5898,0,4.5473,4.5495,4.5536,4.5583,4.5619,4.561,4.5646,4.5676,4.5722,4.5753,4.579,4.5845,4.589,4.5913,4.5957,4.5985,4.5984,4.5997,4.5996,4.6001,4.5918,4.5904,4.5998,4.5998,4.5998,4.5997,4.5997,4.5997,4.5528,4.5589,4.5599,4.5673,4.5693,4.5746,4.5767,4.5796,4.5821,4.5884,4.5921,4.5936,4.5964,4.601,4.6051,4.6056,4.6074,4.6089,4.6094,4.6016,4.6006,4.5996,4.5984,4.6092,4.6093,4.6173,4.6174,4.6175]}]]